STARLINK-30389, 57783

Orbit data source: Space-Track

STARLINK-30389, 57783 is a payload satellite owned by SpaceX/Seattle (US) in LEO that was launched on Mon, 04 Sep 2023 UTC via an FALCON 9 launch vehicle from the Air Force Eastern Test Range (AFETR). Payload-class satellites include a variety of spacecraft equipped with specific instruments for various scientific and technological missions. These include communications satellites like Starlink; space stations such as the ISS; scientific satellites like the Hubble; Earth observation satellites from companies like Planet Labs, Umbra, and HawkEye 360; GPS; miniature CubeSats for education and research; and military/defense satellites.

Loading next visibility...
Identifier
57783, 2023-134N
Orbit
LEO
Country
Flag of USUS
Related business
Manufacturer
SpaceX/Seattle
Mission
Operational Commercial Communications
Bus & Motor
STARLINK V2M, Unknown motor
Mass
730 kg wet, ~700 kg dry
Launch date (UTC)
2023-09-04 (2 years ago)
Launch vehicle
FALCON 9
Launch site
Air Force Eastern Test Range (AFETR)
Object type
Payload
Rocket body
Debris
Shape & HBR
Box + 2 Pan, 17.7 m
Radar Cross Section
33.884 m², Large (>1 m²)

Expand to show TLE details & history
Last TLE update: 12 hours ago

TLE from 12 hours ago
0 STARLINK-30389
1 57783U 23134N   25346.95123857  .00004928  00000-0  37965-3 0  9999
2 57783  43.0013 308.8073 0000993 266.0170  94.0558 15.02532180126428
Epoch: 2025-12-12T22:49Z
TLE epoch observation values (Epoch: 2025-12-12T22:49:47.012Z)
Latitude
-0.00007°
Longitude
-115.52416°
Altitude
558.918 km
Speed
7.584 km/s
True Right ascension
20h 35m 13s
True Declination
0° 00' 00"
Sunlit
Object was in daylight at epoch
Visualization orbit readout
Latitude
Unknown
Longitude
Unknown
Altitude
Unknown
Speed
Unknown
Apparent Right ascension
Unknown
Apparent Declination
Unknown
Sunlit
N/A
Visualization observer readout
Local Sidereal Time
09:18:49
Azimuth
Unknown
Elevation
Unknown
Doppler factor
Unknown
Orbital elements
Apogee altitude
561.704 km
Perigee altitude
560.326 km
Semi-major axis
6,939.152 km
Eccentricity
0.0001
Inclination
43.0013°
RAAN
308.8073°
Arg. of periapsis
266.017°
True anomaly
94.06715°
Mean anomaly
94.0558°
Eccentric anomaly
94.06148°
Mean motion
3.75477 °/min
Orbital period
95.88 mins
BSTAR
0.00037965
Loading maneuver chart data...
Computing Atmospheric mass density...
Loading historical data...
Loading historical data...
Loading historical data...
Loading historical data...
Loading historical data...
Loading historical data...
Loading historical data...

Documentation

Showing up to 5 results
|